Weather History for Belize, Belize

Change the Weather History Date:

Tuesday, July 9, 2013

  Actual Average Record
Temperature  
Mean Temperature 82 °F -  
Max Temperature 88 °F 88 °F 93 °F (2005)
Min Temperature 77 °F 76 °F 73 °F (2010)
Cooling Degree Days 18    
Growing Degree Days 32 (Base 50)    
Moisture  
Dew Point 77 °F    
Average Humidity 80    
Maximum Humidity 100    
Minimum Humidity 69    
Precipitation  
Precipitation 0.00 in 0.30 in - ()
Sea Level Pressure  
Sea Level Pressure 30.00 in    
Wind  
Wind Speed 4 mph ()    
Max Wind Speed 10 mph    
Max Gust Speed -    
Visibility 7.9 miles    
Events      
Averages and records for this station are not official NWS values.
T = Trace of Precipitation, MM = Missing Value Source: Averaged Metar Reports

Daily Weather History Graph

Daily Weather History Graph

Search for Another Location

Airport:

Trip Planner

Search our weather history database for the weather conditions in past years. The results will help you decide how hot, cold, wet, or windy it might be!

Date:

Astronomy

Jul. 09, 2013 Rise Set
Actual Time 5:24 AM CST 6:32 PM CST
Civil Twilight 5:01 AM CST 6:55 PM CST
Nautical Twilight 4:32 AM CST 7:24 PM CST
Astronomical Twilight 4:03 AM CST 7:53 PM CST
Moon 6:31 AM CST (7/9) 7:31 PM CST (7/9)
Length of Visible Light 13h 54m
Length of Day
13h 07m
New Moon, 2% of the Moon is Illuminated
Jul 9
New Moon
Jul 15
First Quarter
Jul 22
Full
Jul 29
Last Quarter
Aug 6
New

Hourly Weather History & Observations

Time (CST) Temp. Heat Index Dew Point Humidity Pressure Visibility Wind Dir Wind Speed Gust Speed Precip Events Conditions
12:00 AM 78 °F - 76 °F 92% 30.01 in 12 mi Calm Calm - -   Scattered Clouds
3:00 AM 78 °F - 77 °F 94% 29.97 in 12 mi Calm Calm - -   Mostly Cloudy
5:00 AM 78.8 °F - 77.0 °F 94% 29.98 in 6.2 mi Calm Calm - N/A   Mostly Cloudy
6:00 AM 78 °F - 76 °F 92% 30.00 in 12 mi Calm Calm - -   Scattered Clouds
6:00 AM 77.0 °F - 77.0 °F 100% 29.98 in 6.2 mi Calm Calm - N/A   Mostly Cloudy
7:00 AM 80.6 °F 87.1 °F 77.0 °F 89% 30.01 in 6.2 mi Calm Calm - N/A   Mostly Cloudy
8:00 AM 84.2 °F 92.3 °F 75.2 °F 74% 30.01 in 6.2 mi East 9.2 mph - N/A   Mostly Cloudy
9:00 AM 85 °F - 76 °F 69% 30.04 in 12 mi ENE 6.9 mph - -   Partly Cloudy
9:00 AM 84.2 °F 94.1 °F 77.0 °F 79% 30.03 in 6.2 mi ENE 6.9 mph - N/A   Mostly Cloudy
10:00 AM 86.0 °F 96.9 °F 77.0 °F 74% 30.04 in 6.2 mi ENE 8.1 mph - N/A   Mostly Cloudy
11:00 AM 87.8 °F 99.7 °F 77.0 °F 70% 30.04 in 6.2 mi ENE 8.1 mph - N/A   Mostly Cloudy
12:00 PM 84.2 °F 94.1 °F 77.0 °F 79% 30.03 in 6.2 mi NNE 8.1 mph - N/A   Mostly Cloudy
1:00 PM 86.0 °F 96.9 °F 77.0 °F 74% 30.02 in 6.2 mi ENE 9.2 mph - N/A   Mostly Cloudy
2:00 PM 87.8 °F 99.7 °F 77.0 °F 70% 30.00 in 6.2 mi East 10.4 mph - N/A   Mostly Cloudy
3:00 PM 87.8 °F 99.7 °F 77.0 °F 70% 29.98 in 6.2 mi East 9.2 mph - N/A   Mostly Cloudy
4:00 PM 86.0 °F 96.9 °F 77.0 °F 74% 29.97 in 6.2 mi East 8.1 mph - N/A   Mostly Cloudy
5:00 PM 86.0 °F 96.9 °F 77.0 °F 74% 29.97 in 6.2 mi East 8.1 mph - N/A   Mostly Cloudy
6:00 PM 84 °F - 77 °F 73% 29.99 in 12 mi East 6.9 mph - -   Scattered Clouds
6:00 PM 84.2 °F 94.1 °F 77.0 °F 79% 29.98 in 6.2 mi East 6.9 mph - N/A   Mostly Cloudy
9:00 PM 83 °F - 76 °F 74% 30.04 in 12 mi East 4.6 mph - -   Scattered Clouds